Bartlesville, OK

8:00 AM CST on December 11, 2016 (GMT -0600)
Bartlesville Municipal

Weather History for KBVO - March, 2014

Change the Weather History Date:

Friday, March 28, 2014

  Actual Average Record
Temperature  
Mean Temperature 46 °F -  
Max Temperature 57 °F 67 °F 87 °F (1963)
Min Temperature 37 °F 45 °F 22 °F (1955)
Degree Days  
Heating Degree Days 19    
Moisture  
Dew Point 34 °F    
Average Humidity 67    
Maximum Humidity 83    
Minimum Humidity 49    
Precipitation  
Precipitation 0.00 in - - ()
Sea Level Pressure  
Sea Level Pressure 30.00 in    
Wind  
Wind Speed 10 mph (NNE)    
Max Wind Speed 17 mph    
Max Gust Speed 28 mph    
Visibility 9 miles    
Events      
Averages and records for this station are not official NWS values.
T = Trace of Precipitation, MM = Missing Value Source: NWS Daily Summary

Daily Weather History Graph

Daily Weather History Graph

Search for Another Location

Airport or City:

Trip Planner

Search our weather history database for the weather conditions in past years. The results will help you decide how hot, cold, wet, or windy it might be!

Date:

Astronomy

Mar. 28, 2014 Rise Set
Actual Time 7:15 AM CDT 7:42 PM CDT
Civil Twilight 6:49 AM CDT 8:08 PM CDT
Nautical Twilight 6:19 AM CDT 8:39 PM CDT
Astronomical Twilight 5:48 AM CDT 9:10 PM CDT
Moon 5:44 AM CDT (3/28) 5:43 PM CDT (3/28)
Length of Visible Light 13h 19m
Length of Day
12h 27m
Waning Crescent, 6% of the Moon is Illuminated
Mar 28
Waning Crescent
Mar 30
New
Apr 7
First Quarter
Apr 15
Full
Apr 22
Last Quarter

Hourly Weather History & Observations

Time (CDT) Temp. Windchill Dew Point Humidity Pressure Visibility Wind Dir Wind Speed Gust Speed Precip Events Conditions
12:53 AM 45.0 °F 39.3 °F 34.0 °F 65% 29.87 in 10.0 mi North 11.5 mph - N/A   Clear
1:53 AM 42.1 °F 37.1 °F 33.1 °F 70% 29.88 in 10.0 mi North 8.1 mph - N/A   Clear
2:53 AM 39.9 °F 35.1 °F 33.1 °F 77% 29.91 in 10.0 mi NNE 6.9 mph - N/A   Clear
3:53 AM 39.9 °F 34.5 °F 33.1 °F 77% 29.91 in 10.0 mi North 8.1 mph - N/A   Clear
4:53 AM 37.9 °F 32.7 °F 32.0 °F 79% 29.90 in 10.0 mi NNE 6.9 mph - N/A   Clear
5:53 AM 37.9 °F 32.1 °F 32.0 °F 79% 29.94 in 10.0 mi NNE 8.1 mph - N/A   Clear
6:53 AM 37.9 °F 30.9 °F 32.0 °F 79% 29.94 in 10.0 mi North 10.4 mph - N/A   Clear
7:53 AM 39.0 °F 31.8 °F 32.0 °F 76% 29.99 in 9.0 mi NNE 11.5 mph - N/A   Clear
8:53 AM 42.1 °F 35.2 °F 32.0 °F 67% 30.00 in 10.0 mi North 12.7 mph - N/A   Clear
9:53 AM 45.0 °F 40.6 °F 33.1 °F 63% 30.02 in 10.0 mi North 8.1 mph - N/A   Clear
10:53 AM 45.0 °F 38.2 °F 33.1 °F 63% 30.02 in 10.0 mi NNE 15.0 mph - N/A   Clear
11:53 AM 46.9 °F - 33.1 °F 59% 30.03 in 10.0 mi NNE 12.7 mph - N/A   Scattered Clouds
12:53 PM 50.0 °F - 34.0 °F 54% 30.02 in 10.0 mi NNE 11.5 mph - N/A   Partly Cloudy
1:53 PM 52.0 °F - 36.0 °F 54% 30.02 in 10.0 mi North 12.7 mph 17.3 mph N/A   Partly Cloudy
2:53 PM 55.0 °F - 36.0 °F 49% 29.99 in 10.0 mi North 17.3 mph 27.6 mph N/A   Clear
3:53 PM 52.0 °F - 36.0 °F 54% 29.99 in 7.0 mi NNE 15.0 mph 23.0 mph N/A   Scattered Clouds
4:53 PM 54.0 °F - 36.0 °F 51% 29.99 in 10.0 mi NE 10.4 mph 21.9 mph N/A   Partly Cloudy
5:53 PM 53.1 °F - 37.0 °F 55% 30.01 in 10.0 mi North 16.1 mph 21.9 mph N/A   Scattered Clouds
6:53 PM 52.0 °F - 36.0 °F 54% 30.05 in 7.0 mi North 10.4 mph 18.4 mph N/A   Clear
7:53 PM 48.9 °F - 36.0 °F 61% 30.08 in 7.0 mi North 9.2 mph - N/A   Mostly Cloudy
8:53 PM 44.1 °F 41.5 °F 36.0 °F 73% 30.08 in 8.0 mi North 4.6 mph - N/A   Partly Cloudy
9:53 PM 42.1 °F - 35.1 °F 76% 30.11 in 5.0 mi Calm Calm - N/A   Haze
10:53 PM 39.9 °F - 35.1 °F 83% 30.14 in 7.0 mi Calm Calm - N/A   Clear
11:53 PM 39.0 °F - 34.0 °F 82% 30.14 in 6.0 mi Calm Calm - N/A   Haze